Location: Mahannah Oil Field
(37.4664°N, 96.6003°W)
Time: 15:05:24
(UTC+00:00)

Vanguard 2 Rocket - Pass Details

Date: 24 January 2021
Orbit: 554 x 3325 km, 32.9° (Epoch: 06 March)

Event Time Altitude Azimuth Distance (km) Brightness Sun altitude
Rises 01:10:28 0° 272° (W) 5,021 12.3 -17.7°
Reaches altitude 10° 01:14:34 10° 268° (W) 3,565 11.2 -18.5°
Maximum altitude 01:22:31 51° 195° (SSW) 1,170 7.5 -20.1°
Enters shadow 01:25:21 26° 132° (SE) 1,531 7.7 -20.6°
Drops below altitude 10° 01:27:22 10° 119° (ESE) 2,194 - -21.0°
Sets 01:29:22 0° 114° (ESE) 2,953 - -21.4°
